| time (UTC) | temp F | wind direction | speed MPH | gust MPH | rain 1hr in | rain 24hr in | rain mn in | humidity % | barometer mb |
| 20260504022305 | 46 | 251 | 0.0 | 0.0 | 0.00 | 0.00 | 0.00 | 64 | 1014.6 |
| 20260504021804 | 47 | 251 | 0.0 | 0.0 | 0.00 | 0.00 | 0.00 | 63 | 1014.6 |
| 20260504021305 | 47 | 251 | 0.0 | 0.0 | 0.00 | 0.00 | 0.00 | 61 | 1014.6 |
| 20260504020304 | 48 | 251 | 0.0 | 1.0 | 0.00 | 0.00 | 0.00 | 60 | 1014.5 |
| 20260504015804 | 49 | 251 | 0.0 | 0.0 | 0.00 | 0.00 | 0.00 | 59 | 1014.6 |
| 20260504015304 | 49 | 251 | 0.0 | 1.0 | 0.00 | 0.00 | 0.00 | 59 | 1014.6 |
| 20260504014804 | 50 | 251 | 0.0 | 0.0 | 0.00 | 0.00 | 0.00 | 58 | 1014.6 |
| 20260504014304 | 50 | 251 | 0.0 | 1.0 | 0.00 | 0.00 | 0.00 | 57 | 1014.6 |
| 20260504013804 | 50 | 251 | 0.0 | 2.0 | 0.00 | 0.00 | 0.00 | 57 | 1014.5 |
| 20260504013304 | 50 | 242 | 0.0 | 1.0 | 0.00 | 0.00 | 0.00 | 57 | 1014.5 |
| 20260504012805 | 51 | 242 | 0.0 | 1.0 | 0.00 | 0.00 | 0.00 | 57 | 1014.4 |
| 20260504011804 | 51 | 257 | 0.0 | 1.0 | 0.00 | 0.00 | 0.00 | 56 | 1014.4 |
| 20260504011305 | 51 | 257 | 0.0 | 2.0 | 0.00 | 0.00 | 0.00 | 56 | 1014.3 |
| 20260504010804 | 52 | 269 | 0.0 | 1.0 | 0.00 | 0.00 | 0.00 | 56 | 1014.4 |
| 20260504010304 | 52 | 259 | 0.0 | 1.0 | 0.00 | 0.00 | 0.00 | 55 | 1014.4 |
| 20260504005305 | 53 | 226 | 0.0 | 1.0 | 0.00 | 0.00 | 0.00 | 54 | 1014.4 |
| 20260504004804 | 53 | 226 | 1.0 | 3.0 | 0.00 | 0.00 | 0.00 | 53 | 1014.3 |
| 20260504004304 | 53 | 254 | 0.0 | 3.0 | 0.00 | 0.00 | 0.00 | 53 | 1014.4 |
| 20260504003804 | 53 | 245 | 1.0 | 3.0 | 0.00 | 0.00 | 0.00 | 52 | 1014.3 |
| 20260504003304 | 53 | 249 | 0.0 | 3.0 | 0.00 | 0.00 | 0.00 | 52 | 1014.3 |
| 20260504002804 | 54 | 262 | 1.0 | 3.0 | 0.00 | 0.00 | 0.00 | 52 | 1014.3 |
| 20260504002304 | 54 | 269 | 2.0 | 3.0 | 0.00 | 0.00 | 0.00 | 52 | 1014.3 |
| 20260504001304 | 54 | 242 | 2.0 | 5.0 | 0.00 | 0.00 | 0.00 | 51 | 1014.3 |
| 20260504000804 | 54 | 246 | 1.0 | 3.0 | 0.00 | 0.00 | 0.00 | 52 | 1014.3 |
| 20260504000304 | 54 | 229 | 1.0 | 3.0 | 0.00 | 0.00 | 0.00 | 50 | 1014.4 |
| 20260503235804 | 54 | 235 | 1.0 | 3.0 | 0.00 | 0.00 | 0.00 | 50 | 1014.3 |
| 20260503235304 | 55 | 265 | 1.0 | 3.0 | 0.00 | 0.00 | 0.00 | 51 | 1014.3 |
| 20260503234304 | 55 | 265 | 3.0 | 7.0 | 0.00 | 0.00 | 0.00 | 49 | 1014.4 |
| 20260503233804 | 55 | 278 | 2.0 | 7.0 | 0.00 | 0.00 | 0.00 | 49 | 1014.3 |
| 20260503233304 | 55 | 276 | 6.0 | 10.0 | 0.00 | 0.00 | 0.00 | 48 | 1014.3 |
| 20260503232804 | 56 | 252 | 3.0 | 10.0 | 0.00 | 0.00 | 0.00 | 47 | 1014.3 |
| 20260503232305 | 56 | 239 | 5.0 | 10.0 | 0.00 | 0.00 | 0.00 | 47 | 1014.3 |
| 20260503231304 | 56 | 260 | 6.0 | 12.0 | 0.00 | 0.00 | 0.00 | 46 | 1014.3 |
| 20260503230804 | 56 | 274 | 6.0 | 12.0 | 0.00 | 0.00 | 0.00 | 46 | 1014.3 |
| 20260503230304 | 57 | 266 | 7.0 | 15.0 | 0.00 | 0.00 | 0.00 | 45 | 1014.3 |
| 20260503225805 | 57 | 278 | 5.0 | 9.0 | 0.00 | 0.00 | 0.00 | 47 | 1014.3 |
| 20260503225305 | 57 | 274 | 5.0 | 12.0 | 0.00 | 0.00 | 0.00 | 44 | 1014.3 |
| 20260503224304 | 57 | 238 | 3.0 | 9.0 | 0.00 | 0.00 | 0.00 | 45 | 1014.3 |
| 20260503223804 | 58 | 250 | 4.0 | 12.0 | 0.00 | 0.00 | 0.00 | 43 | 1014.3 |
| 20260503223304 | 58 | 270 | 3.0 | 10.0 | 0.00 | 0.00 | 0.00 | 45 | 1014.3 |
| 20260503222305 | 57 | 274 | 5.0 | 12.0 | 0.00 | 0.00 | 0.00 | 46 | 1014.5 |
| 20260503221806 | 57 | 272 | 5.0 | 10.0 | 0.00 | 0.00 | 0.00 | 44 | 1014.5 |
| 20260503221304 | 57 | 247 | 6.0 | 13.0 | 0.00 | 0.00 | 0.00 | 44 | 1014.5 |
| 20260503220804 | 58 | 267 | 7.0 | 13.0 | 0.00 | 0.00 | 0.00 | 44 | 1014.5 |
| 20260503220305 | 58 | 180 | 2.0 | 10.0 | 0.00 | 0.00 | 0.00 | 45 | 1014.4 |
| 20260503215804 | 58 | 258 | 3.0 | 12.0 | 0.00 | 0.00 | 0.00 | 47 | 1014.5 |
| 20260503215304 | 57 | 266 | 4.0 | 12.0 | 0.00 | 0.00 | 0.00 | 46 | 1014.5 |
| 20260503214805 | 58 | 279 | 7.0 | 12.0 | 0.00 | 0.00 | 0.00 | 44 | 1014.4 |
| 20260503214303 | 59 | 280 | 7.0 | 12.0 | 0.00 | 0.00 | 0.00 | 44 | 1014.4 |
| 20260503213804 | 59 | 267 | 4.0 | 9.0 | 0.00 | 0.00 | 0.00 | 45 | 1014.3 |
| 20260503213304 | 59 | 235 | 2.0 | 9.0 | 0.00 | 0.00 | 0.00 | 46 | 1014.3 |
| 20260503212804 | 58 | 272 | 4.0 | 10.0 | 0.00 | 0.00 | 0.00 | 47 | 1014.4 |
| 20260503212305 | 58 | 253 | 4.0 | 9.0 | 0.00 | 0.00 | 0.00 | 44 | 1014.3 |
| 20260503211805 | 59 | 225 | 5.0 | 12.0 | 0.00 | 0.00 | 0.00 | 42 | 1014.3 |
| 20260503211304 | 59 | 258 | 5.0 | 10.0 | 0.00 | 0.00 | 0.00 | 43 | 1014.4 |
| 20260503210804 | 59 | 240 | 3.0 | 9.0 | 0.00 | 0.00 | 0.00 | 45 | 1014.4 |
| 20260503210304 | 59 | 245 | 4.0 | 12.0 | 0.00 | 0.00 | 0.00 | 46 | 1014.4 |
| 20260503205804 | 58 | 265 | 5.0 | 13.0 | 0.00 | 0.00 | 0.00 | 47 | 1014.5 |
| 20260503205304 | 58 | 259 | 5.0 | 10.0 | 0.00 | 0.00 | 0.00 | 45 | 1014.5 |
| 20260503204303 | 58 | 246 | 4.0 | 13.0 | 0.00 | 0.00 | 0.00 | 46 | 1014.7 |
| 20260503203804 | 57 | 269 | 3.0 | 8.0 | 0.00 | 0.00 | 0.00 | 47 | 1014.6 |
| 20260503202304 | 58 | 279 | 7.0 | 15.0 | 0.00 | 0.00 | 0.00 | 46 | 1014.9 |
| 20260503201805 | 57 | 265 | 7.0 | 12.0 | 0.00 | 0.00 | 0.00 | 45 | 1014.9 |
| 20260503200804 | 57 | 280 | 7.0 | 20.0 | 0.00 | 0.00 | 0.00 | 44 | 1015.1 |
| 20260503200307 | 57 | 287 | 7.0 | 15.0 | 0.00 | 0.00 | 0.00 | 44 | 1015.1 |
| 20260503195804 | 57 | 277 | 5.0 | 10.0 | 0.00 | 0.00 | 0.00 | 45 | 1015.2 |
| 20260503195305 | 57 | 263 | 3.0 | 8.0 | 0.00 | 0.00 | 0.00 | 44 | 1015.3 |
| 20260503194804 | 58 | 302 | 6.0 | 12.0 | 0.00 | 0.00 | 0.00 | 42 | 1015.4 |
| 20260503194304 | 57 | 292 | 5.0 | 12.0 | 0.00 | 0.00 | 0.00 | 43 | 1015.5 |
| 20260503193805 | 57 | 279 | 4.0 | 8.0 | 0.00 | 0.00 | 0.00 | 45 | 1015.6 |
| 20260503193304 | 57 | 289 | 3.0 | 12.0 | 0.00 | 0.00 | 0.00 | 46 | 1015.6 |
| 20260503192804 | 57 | 247 | 6.0 | 14.0 | 0.00 | 0.00 | 0.00 | 48 | 1015.7 |
| 20260503192305 | 56 | 278 | 5.0 | 9.0 | 0.00 | 0.00 | 0.00 | 47 | 1015.9 |
| 20260503191804 | 56 | 285 | 7.0 | 13.0 | 0.00 | 0.00 | 0.00 | 46 | 1016.0 |
| 20260503191304 | 56 | 275 | 7.0 | 15.0 | 0.00 | 0.00 | 0.00 | 44 | 1015.9 |
| 20260503190804 | 57 | 259 | 7.0 | 13.0 | 0.00 | 0.00 | 0.00 | 47 | 1016.0 |
| 20260503190304 | 56 | 248 | 5.0 | 14.0 | 0.00 | 0.00 | 0.00 | 52 | 1016.0 |
| 20260503184803 | 56 | 266 | 7.0 | 14.0 | 0.00 | 0.00 | 0.00 | 46 | 1016.3 |
| 20260503184304 | 57 | 278 | 6.0 | 13.0 | 0.00 | 0.00 | 0.00 | 47 | 1016.2 |
| 20260503183804 | 56 | 272 | 3.0 | 8.0 | 0.00 | 0.00 | 0.00 | 51 | 1016.4 |
| 20260503183304 | 56 | 272 | 6.0 | 13.0 | 0.00 | 0.00 | 0.00 | 46 | 1016.4 |
| 20260503182804 | 56 | 256 | 6.0 | 10.0 | 0.00 | 0.00 | 0.00 | 47 | 1016.5 |
| 20260503182305 | 56 | 272 | 6.0 | 10.0 | 0.00 | 0.00 | 0.00 | 47 | 1016.6 |
| 20260503181804 | 56 | 272 | 5.0 | 12.0 | 0.00 | 0.00 | 0.00 | 46 | 1016.6 |
| 20260503181304 | 56 | 261 | 5.0 | 12.0 | 0.00 | 0.00 | 0.00 | 49 | 1016.6 |
| 20260503180804 | 56 | 280 | 7.0 | 14.0 | 0.00 | 0.00 | 0.00 | 48 | 1016.7 |
| 20260503180304 | 56 | 280 | 7.0 | 15.0 | 0.00 | 0.00 | 0.00 | 48 | 1016.8 |
| 20260503175804 | 55 | 282 | 7.0 | 20.0 | 0.00 | 0.00 | 0.00 | 47 | 1016.9 |
| 20260503175305 | 56 | 283 | 6.0 | 14.0 | 0.00 | 0.00 | 0.00 | 49 | 1017.0 |
| 20260503174804 | 55 | 246 | 5.0 | 16.0 | 0.00 | 0.00 | 0.00 | 48 | 1016.9 |
| 20260503173804 | 55 | 230 | 5.0 | 12.0 | 0.00 | 0.00 | 0.00 | 49 | 1017.2 |
| 20260503173304 | 55 | 258 | 6.0 | 15.0 | 0.00 | 0.00 | 0.00 | 49 | 1017.1 |
| 20260503172805 | 55 | 260 | 6.0 | 12.0 | 0.00 | 0.00 | 0.00 | 52 | 1017.2 |
| 20260503172305 | 54 | 288 | 5.0 | 16.0 | 0.00 | 0.00 | 0.00 | 49 | 1017.1 |
| 20260503171304 | 53 | 258 | 4.0 | 12.0 | 0.00 | 0.00 | 0.00 | 48 | 1017.3 |
| 20260503170805 | 53 | 262 | 7.0 | 10.0 | 0.00 | 0.00 | 0.00 | 47 | 1017.3 |
| 20260503170304 | 53 | 33 | 2.0 | 9.0 | 0.00 | 0.00 | 0.00 | 50 | 1017.5 |
| 20260503150805 | 50 | 284 | 5.0 | 12.0 | 0.00 | 0.00 | 0.00 | 54 | 1018.5 |
| 20260503150304 | 49 | 288 | 6.0 | 10.0 | 0.00 | 0.00 | 0.00 | 54 | 1018.5 |
| 20260503140304 | 46 | 44 | 2.0 | 10.0 | 0.00 | 0.00 | 0.00 | 67 | 1018.9 |
| 20260503131304 | 43 | 265 | 3.0 | 8.0 | 0.00 | 0.03 | 0.00 | 77 | 1019.1 |
| 20260503130806 | 42 | 278 | 3.0 | 7.0 | 0.00 | 0.03 | 0.00 | 78 | 1019.1 |
| 20260503130304 | 42 | 272 | 1.0 | 6.0 | 0.00 | 0.03 | 0.00 | 81 | 1019.1 |
| 20260503090304 | 30 | 300 | 0.0 | 0.0 | 0.00 | 0.03 | 0.00 | 95 | 1017.7 |
| 20260503081304 | 31 | 300 | 0.0 | 0.0 | 0.00 | 0.04 | 0.00 | 93 | 1017.6 |
| 20260503080304 | 31 | 300 | 0.0 | 0.0 | 0.00 | 0.04 | 0.00 | 93 | 1017.7 |
| 20260503072305 | 32 | 300 | 0.0 | 0.0 | 0.00 | 0.04 | 0.00 | 92 | 1017.4 |
| 20260503071804 | 33 | 300 | 0.0 | 0.0 | 0.00 | 0.04 | 0.00 | 92 | 1017.4 |
| 20260503070804 | 33 | 300 | 0.0 | 0.0 | 0.00 | 0.04 | 0.00 | 91 | 1017.3 |
| 20260503070304 | 33 | 300 | 0.0 | 0.0 | 0.00 | 0.04 | 0.00 | 91 | 1017.4 |
| 20260503060304 | 35 | 300 | 0.0 | 0.0 | 0.00 | 0.04 | 0.00 | 91 | 1017.5 |
| 20260503054804 | 34 | 300 | 0.0 | 0.0 | 0.00 | 0.04 | 0.00 | 90 | 1017.6 |
| 20260503054304 | 35 | 300 | 0.0 | 0.0 | 0.00 | 0.04 | 0.00 | 90 | 1017.6 |
| 20260503052305 | 35 | 300 | 0.0 | 0.0 | 0.00 | 0.04 | 0.00 | 90 | 1017.7 |
| 20260503051806 | 34 | 300 | 0.0 | 0.0 | 0.00 | 0.04 | 0.00 | 90 | 1017.7 |
| 20260503051304 | 34 | 300 | 0.0 | 0.0 | 0.00 | 0.04 | 0.00 | 90 | 1017.8 |
| 20260503050806 | 34 | 300 | 0.0 | 0.0 | 0.00 | 0.04 | 0.00 | 90 | 1017.8 |
| 20260503050305 | 34 | 300 | 0.0 | 0.0 | 0.00 | 0.04 | 0.00 | 90 | 1017.8 |
| 20260503045804 | 34 | 300 | 0.0 | 0.0 | 0.00 | 0.04 | 0.00 | 90 | 1017.8 |
| 20260503045305 | 35 | 300 | 0.0 | 0.0 | 0.00 | 0.04 | 0.00 | 90 | 1017.8 |
| 20260503044804 | 35 | 300 | 0.0 | 0.0 | 0.00 | 0.04 | 0.00 | 90 | 1017.9 |
| 20260503044303 | 35 | 300 | 0.0 | 0.0 | 0.00 | 0.04 | 0.00 | 90 | 1017.8 |
| 20260503043304 | 34 | 300 | 0.0 | 0.0 | 0.00 | 0.04 | 0.00 | 89 | 1017.9 |
| 20260503042804 | 34 | 300 | 0.0 | 0.0 | 0.00 | 0.04 | 0.00 | 89 | 1018.0 |
| 20260503042305 | 35 | 300 | 0.0 | 0.0 | 0.00 | 0.04 | 0.00 | 89 | 1017.9 |
| 20260503041804 | 35 | 300 | 0.0 | 0.0 | 0.00 | 0.04 | 0.00 | 88 | 1018.0 |
| 20260503041304 | 35 | 300 | 0.0 | 0.0 | 0.00 | 0.04 | 0.00 | 88 | 1018.0 |
| 20260503040804 | 35 | 300 | 0.0 | 0.0 | 0.00 | 0.04 | 0.00 | 87 | 1018.0 |
| 20260503040304 | 35 | 300 | 0.0 | 0.0 | 0.00 | 0.04 | 0.00 | 87 | 1018.1 |
| 20260503035804 | 35 | 300 | 0.0 | 0.0 | 0.00 | 0.04 | 0.04 | 87 | 1018.0 |
| 20260503035305 | 35 | 300 | 0.0 | 0.0 | 0.00 | 0.04 | 0.04 | 87 | 1018.0 |
| 20260503034805 | 35 | 300 | 0.0 | 1.0 | 0.00 | 0.04 | 0.04 | 86 | 1018.1 |
| 20260503034305 | 35 | 300 | 0.0 | 0.0 | 0.00 | 0.04 | 0.04 | 85 | 1018.0 |
| 20260503033804 | 35 | 300 | 0.0 | 1.0 | 0.00 | 0.04 | 0.04 | 85 | 1018.0 |
| 20260503033304 | 36 | 300 | 0.0 | 1.0 | 0.00 | 0.04 | 0.04 | 85 | 1017.9 |
| 20260503032804 | 36 | 300 | 0.0 | 1.0 | 0.00 | 0.04 | 0.04 | 83 | 1017.8 |
| 20260503032304 | 36 | 300 | 0.0 | 0.0 | 0.00 | 0.04 | 0.04 | 82 | 1017.9 |
| 20260503031804 | 36 | 300 | 0.0 | 0.0 | 0.00 | 0.04 | 0.04 | 82 | 1017.9 |
| 20260503031304 | 37 | 300 | 0.0 | 1.0 | 0.00 | 0.04 | 0.04 | 81 | 1017.9 |
| 20260503030804 | 37 | 300 | 0.0 | 1.0 | 0.00 | 0.04 | 0.04 | 81 | 1017.9 |
| 20260503030305 | 37 | 300 | 0.0 | 1.0 | 0.00 | 0.04 | 0.04 | 81 | 1018.0 |
| 20260503025804 | 37 | 6 | 0.0 | 0.0 | 0.00 | 0.04 | 0.04 | 81 | 1018.0 |
| 20260503025305 | 37 | 6 | 0.0 | 0.0 | 0.00 | 0.04 | 0.04 | 81 | 1018.1 |
| 20260503024806 | 37 | 6 | 0.0 | 1.0 | 0.00 | 0.04 | 0.04 | 81 | 1018.1 |
| 20260503024304 | 37 | 6 | 0.0 | 0.0 | 0.00 | 0.04 | 0.04 | 81 | 1018.1 |
| 20260503023804 | 37 | 6 | 0.0 | 1.0 | 0.00 | 0.04 | 0.04 | 82 | 1018.2 |
| 20260503023304 | 37 | 6 | 0.0 | 0.0 | 0.00 | 0.04 | 0.04 | 82 | 1018.2 |
| 20260503022804 | 37 | 6 | 0.0 | 0.0 | 0.00 | 0.04 | 0.04 | 83 | 1018.2 |